Temperature
15 14 13 13 12 14 15 14 13 12 12 9 8 10 12 13 10 10 11 13 14 16 17 15 14 13 12 11 10 9 8 8 7 6 6 5 5 5 4 4 3 3 2 2
14 13 13 13 13 13 13 13 12 12 11 9 8 9 11 11 11 11 11 12 15 16 17 16 15 14 13 12 11 10 10 9 8 7 6 6 5 5 4 3 3 3 2 2
15 15 14 14 14 14 13 13 13 13 13 11 9 11 11 11 10 11 12 14 15 16 18 17 16 15 14 14 13 13 12 10 9 8 6 5 5 4 4 4 4 3 2 2
13 13 14 14 14 14 12 13 13 13 12 10 11 11 13 12 10 10 13 14 17 19 19 18 17 17 16 16 15 14 13 12 10 8 7 6 6 6 6 5 4 3 2 2
14 14 14 14 14 13 13 13 13 12 11 10 9 10 12 11 12 13 14 17 20 20 20 19 19 18 18 17 16 15 13 12 11 10 8 7 6 6 5 4 3 3 2 2
13 14 14 13 13 13 13 12 10 8 9 10 10 9 11 11 13 14 14 18 20 21 20 20 19 19 18 17 16 15 14 13 12 11 10 8 7 6 5 4 3 3 2 2
13 13 14 14 13 13 13 12 11 12 11 11 10 9 11 13 12 12 13 17 19 19 20 20 20 19 19 18 17 17 16 15 14 12 11 10 8 7 5 5 4 3 2 2
13 13 14 13 13 12 12 12 12 13 12 10 10 9 12 13 13 14 14 16 18 19 20 20 20 19 19 18 18 17 16 16 15 13 12 11 9 7 6 5 4 3 2 2
13 13 13 12 12 12 11 10 11 10 10 9 9 9 11 13 13 13 15 16 18 20 20 20 19 19 19 18 18 17 17 16 15 14 13 11 10 8 7 5 4 3 2 1
13 13 13 12 12 12 12 10 8 10 11 10 10 10 12 14 16 14 13 15 17 19 19 19 19 19 18 18 18 17 16 16 15 14 13 12 10 9 7 5 4 3 2 1
12 12 12 12 11 11 10 10 10 8 8 9 10 12 12 13 13 12 12 15 17 18 18 18 18 18 18 17 17 17 16 16 15 14 13 12 10 9 7 5 4 3 2 1
11 9 10 11 11 10 10 10 9 10 10 7 7 11 13 12 12 11 13 16 17 17 17 17 17 17 17 17 17 17 16 16 15 14 13 12 10 9 7 6 4 3 2 1
9 10 11 12 12 10 10 9 8 9 9 7 7 12 13 12 12 14 15 15 16 16 16 16 16 16 16 16 16 16 16 15 15 13 13 11 10 9 8 6 4 3 2 1
10 9 11 12 13 12 11 10 8 9 9 8 8 12 14 14 14 14 15 15 15 15 15 15 15 15 15 15 15 15 15 15 14 13 12 12 11 9 8 6 4 3 2 1
9 9 8 9 10 9 10 10 10 9 10 10 12 12 14 15 13 13 14 14 14 14 15 15 15 15 15 15 15 15 15 14 14 13 12 12 10 9 7 5 4 2 1 1
7 8 8 8 9 8 8 9 10 10 10 10 11 12 13 13 13 12 12 12 12 14 14 14 14 14 14 14 14 14 14 14 13 13 12 11 10 8 6 5 3 2 1 0
6 6 7 7 9 8 8 10 10 10 9 9 10 11 11 10 10 11 12 12 13 13 13 13 13 13 13 13 13 13 13 13 13 12 12 11 9 8 6 4 2 1 0 -0
5 5 6 5 8 8 11 11 10 10 10 9 10 10 10 10 11 12 13 13 12 12 12 12 12 12 12 12 13 12 12 12 12 12 11 10 9 7 5 3 2 1 0 -0
5 6 6 5 6 7 8 9 10 9 9 10 10 10 10 11 10 12 12 12 11 11 11 11 11 11 11 12 11 11 11 11 11 11 10 9 8 6 5 3 2 1 0 -0
4 5 5 4 5 7 9 11 11 10 9 11 11 10 10 9 7 9 11 11 11 11 10 10 10 10 10 11 10 10 10 10 10 10 9 8 7 6 4 3 2 0 -0 -1
4 3 4 4 4 7 8 9 10 10 10 12 11 11 10 8 8 10 10 10 10 9 9 9 9 9 10 9 9 9 9 9 9 8 8 7 6 5 4 2 1 -0 -1 -1
5 4 3 3 4 6 8 8 9 10 11 11 11 10 10 9 9 9 9 9 9 8 9 8 8 8 9 9 8 8 8 8 7 7 7 6 5 4 2 1 0 -1 -1 -2
5 6 5 5 8 9 10 10 11 11 10 10 10 10 9 8 8 8 8 8 8 8 8 7 7 7 8 8 7 7 7 7 6 6 6 6 4 3 1 -0 -1 -2 -2 -2
6 5 5 5 6 7 10 10 11 11 10 10 9 8 8 7 7 7 7 7 7 7 6 6 6 6 7 7 6 6 6 5 5 6 5 5 3 2 0 -1 -2 -2 -2 -3
6 6 5 6 7 7 9 9 9 9 9 8 8 7 7 6 6 6 5 6 5 6 6 5 5 5 5 5 6 5 5 4 4 5 4 3 2 0 -1 -2 -2 -2 -2 -2
6 6 6 7 8 7 8 8 8 8 7 7 6 6 6 5 5 5 5 5 5 5 5 5 4 4 4 4 4 4 4 3 3 4 3 2 1 -1 -2 -3 -3 -4 -3 -3
Wind_Speed
3 2 5 9 9 6 3 5 9 9 4 7 12 20 25 16 11 16 16 14 16 20 16 11 14 15 13 15 17 18 18 15 12 7 6 6 6 6 7 15 18 19 18 17
4 6 10 5 4 5 5 6 8 8 3 6 9 17 21 15 13 17 17 17 18 15 11 11 13 16 19 19 19 19 20 19 17 13 8 5 4 5 7 12 16 19 18 18
8 6 1 5 4 5 5 7 7 7 5 4 8 13 10 7 5 7 11 11 11 16 16 13 15 17 18 21 23 21 22 20 18 14 7 4 3 2 5 7 8 16 19 18
7 6 3 4 5 6 7 7 6 4 4 6 3 8 12 8 9 9 11 11 14 14 14 13 14 16 21 23 20 20 20 20 18 17 15 13 12 11 11 8 8 12 18 18
6 4 5 7 7 8 7 0 0 2 3 5 3 5 12 8 9 10 11 12 13 13 14 15 17 19 19 18 17 18 18 19 19 20 21 19 16 11 6 6 8 9 12 16
7 3 5 6 0 2 3 4 4 5 3 5 5 6 9 7 9 9 8 8 10 11 11 13 13 12 13 13 15 16 18 20 19 21 21 21 20 14 10 10 10 9 7 9
7 4 2 3 3 3 3 3 5 6 3 6 3 5 11 13 9 9 12 12 10 8 9 10 11 12 14 15 17 17 19 21 20 21 22 22 21 18 18 15 14 11 9 8
4 7 4 4 6 5 4 6 4 4 5 7 3 8 11 12 10 10 11 12 11 11 9 10 11 11 12 14 15 17 21 22 21 22 23 20 18 15 14 15 12 13 11 11
5 6 1 2 2 8 5 4 4 3 3 5 8 9 13 10 8 6 8 9 12 12 11 11 10 10 11 12 15 18 20 20 20 22 20 19 19 18 16 14 13 10 10 9
7 6 4 1 2 1 3 6 5 3 3 6 8 7 6 10 11 10 10 11 11 11 11 11 10 9 9 10 11 13 18 20 19 18 19 17 18 19 16 13 14 13 12 10
5 4 5 2 6 7 5 4 4 3 4 4 6 8 8 10 11 11 13 12 12 13 12 12 10 8 8 8 9 12 15 16 16 18 18 18 17 17 16 16 16 15 13 13
4 4 5 7 3 4 7 8 8 5 6 6 5 11 11 12 11 10 12 13 12 12 12 11 10 8 7 7 8 11 13 15 16 15 16 18 16 16 17 18 17 15 14 14
5 4 4 7 2 1 3 5 7 4 2 5 6 12 7 9 11 11 12 13 13 13 12 10 9 8 8 7 8 10 12 14 13 13 15 16 17 18 20 19 17 15 15 14
6 5 7 10 9 4 6 6 7 7 6 8 13 21 23 22 20 18 15 12 12 12 11 10 10 9 8 7 8 9 11 12 12 14 16 18 20 20 19 17 16 16 16 15
5 5 8 10 11 6 8 12 11 14 14 15 21 22 29 24 16 14 12 12 12 12 12 11 10 9 8 8 8 9 11 11 13 15 18 20 18 16 15 16 16 15 15 15
3 5 4 7 9 9 10 15 19 19 15 16 23 25 24 14 9 10 11 10 10 11 11 11 11 11 10 9 9 9 10 11 12 16 18 16 14 15 16 16 15 15 15 13
6 7 4 7 5 5 10 15 17 11 10 11 14 14 10 11 12 11 11 10 10 11 11 12 12 11 11 11 10 10 10 9 12 16 16 15 15 16 16 16 16 16 15 14
9 7 4 4 1 11 11 6 10 11 13 12 12 12 12 12 12 10 9 7 9 10 11 12 11 12 11 10 10 9 8 8 11 14 15 14 15 16 15 15 16 16 13 14
7 8 5 3 6 11 9 10 7 8 9 8 8 9 9 9 8 6 4 4 8 10 12 12 12 12 11 12 10 8 8 7 10 13 15 15 15 16 16 17 17 15 13 13
3 5 5 5 6 10 10 5 1 2 7 5 4 5 7 7 9 8 9 11 13 13 11 12 11 11 12 12 8 7 9 9 13 14 14 13 14 16 17 17 16 13 13 13
4 4 7 8 10 11 10 4 2 4 7 3 3 6 7 5 8 11 13 12 11 12 13 12 11 11 12 11 8 9 11 13 12 10 10 11 13 15 15 14 12 12 13 12
8 7 8 7 7 11 7 5 6 8 6 6 8 9 10 11 11 11 11 12 12 12 12 11 10 12 12 10 8 10 14 13 9 8 9 11 12 12 12 12 12 12 13 13
9 10 7 11 11 7 5 8 8 7 10 11 10 11 11 11 11 11 10 11 11 11 11 10 11 13 13 10 8 12 14 11 9 9 9 9 10 11 11 12 13 12 12 11
7 7 7 10 12 12 12 11 12 13 14 12 11 10 9 10 11 11 10 10 10 10 11 10 11 13 15 13 11 11 13 11 9 10 9 8 9 10 10 11 12 12 13 12
8 5 8 15 14 12 11 11 12 12 10 9 9 8 7 7 8 8 9 10 10 10 10 10 11 13 16 15 15 13 11 10 10 10 9 8 9 9 11 12 12 14 14 15
12 14 17 22 16 14 15 10 11 10 9 8 7 6 6 5 7 9 10 10 10 12 11 12 13 14 15 15 16 15 11 9 9 9 8 7 7 8 9 10 10 19 17 21
Wind_Direction
44 65 238 229 212 219 244 249 267 266 225 201 245 261 270 263 229 243 245 240 237 239 239 212 204 202 199 200 202 203 202 197 185 179 183 188 207 204 204 208 208 206 206 206
16 264 245 224 188 206 232 265 274 285 221 216 278 277 272 262 238 237 240 238 237 240 238 213 202 200 204 206 206 206 206 199 196 196 182 177 176 192 203 205 206 206 205 205
220 247 192 165 189 208 239 230 251 272 317 272 307 297 289 292 253 253 240 238 235 232 236 222 209 207 207 210 209 208 207 203 199 190 169 150 140 150 179 200 205 206 204 205
246 262 209 212 234 198 262 244 232 273 317 299 354 304 294 292 300 269 251 237 238 235 232 225 214 212 212 215 210 209 205 203 198 189 190 190 198 205 203 195 196 197 201 204
265 230 202 224 236 191 228 348 226 289 247 297 263 236 285 312 290 275 259 241 238 234 226 227 221 219 218 214 207 207 205 205 199 197 200 203 211 211 185 179 187 195 201 205
251 258 209 214 117 153 134 65 54 54 74 289 237 197 283 268 248 280 289 268 251 243 232 234 230 221 219 207 204 203 204 208 202 201 204 207 211 202 188 191 196 200 201 205
316 300 244 148 117 42 97 69 346 336 339 260 198 214 255 259 249 253 275 289 291 274 250 242 233 222 219 208 205 202 204 210 205 204 208 211 212 205 205 201 202 198 200 206
307 302 234 196 193 187 181 157 181 261 270 291 270 239 258 269 276 263 266 277 289 283 265 252 241 229 224 215 206 203 207 212 206 207 212 212 211 209 212 207 201 201 204 206
214 272 303 179 194 153 159 200 176 168 278 278 275 285 297 295 310 300 289 289 285 283 278 265 256 238 227 217 210 207 209 212 210 210 210 211 210 211 211 205 202 202 202 199
178 261 293 4 99 49 170 156 112 151 271 281 288 278 260 297 309 320 319 307 297 295 289 280 268 253 237 225 215 206 210 214 213 209 210 213 212 212 210 203 203 204 202 198
170 213 296 308 209 204 148 163 166 172 197 223 278 270 238 249 274 292 296 295 294 294 291 285 278 265 245 227 212 209 212 214 213 211 211 213 211 209 207 208 208 205 201 199
155 142 264 265 235 178 181 192 164 188 240 208 240 269 260 259 274 277 283 291 293 289 286 285 284 279 261 240 222 216 215 216 217 212 210 214 211 206 208 212 209 203 201 200
141 129 333 335 353 96 229 216 196 186 183 204 224 268 273 287 292 288 286 292 297 300 301 301 299 288 274 255 234 224 221 221 216 208 211 213 212 210 212 212 207 202 201 200
140 175 201 232 249 230 229 230 195 187 221 241 237 261 281 288 294 302 307 304 303 303 305 308 307 300 287 266 244 234 231 222 213 209 213 217 217 215 214 211 205 202 200 199
137 227 239 253 267 263 243 247 226 216 225 240 262 266 275 285 298 302 304 309 313 315 318 318 312 307 299 283 260 242 237 223 212 213 218 223 220 216 212 209 206 202 200 201
158 228 254 268 260 249 252 251 248 244 240 243 261 271 275 290 305 301 303 306 309 313 314 313 311 308 302 289 273 256 243 226 211 218 224 224 217 213 211 209 204 200 200 199
196 198 232 268 278 308 265 239 237 227 216 214 243 258 298 319 315 309 307 308 305 306 305 306 305 300 296 291 278 267 253 228 216 224 228 222 216 215 212 207 203 201 199 195
177 174 209 276 347 242 246 240 225 234 248 233 248 273 295 293 292 286 276 285 304 306 306 305 302 301 298 294 288 277 262 235 226 230 231 223 215 216 210 205 206 204 198 196
177 166 194 216 252 270 285 269 220 216 269 244 238 269 289 300 314 295 264 284 293 295 294 293 294 295 297 297 295 287 274 253 240 238 235 225 216 214 209 208 207 202 196 197
110 157 186 197 225 255 250 255 169 146 280 263 211 283 305 338 335 303 311 317 311 307 305 305 306 305 304 304 304 290 279 264 253 247 240 228 217 214 213 212 206 199 195 198
140 170 202 219 236 262 258 271 131 205 252 280 276 294 298 283 262 277 298 303 300 301 303 304 306 304 301 304 304 289 282 272 267 259 245 230 220 218 217 211 202 192 192 191
191 195 209 201 220 256 243 163 197 236 283 300 299 294 291 284 283 291 300 303 307 308 308 311 311 308 306 306 300 291 287 284 279 260 242 231 221 216 214 205 198 191 189 189
210 205 207 205 227 250 215 220 254 280 288 291 290 290 292 294 297 304 305 306 307 306 309 311 310 308 308 305 293 289 291 294 284 264 249 236 220 211 204 200 197 192 191 193
235 215 231 255 260 262 269 271 273 273 275 283 284 288 295 296 300 305 304 305 307 306 309 310 312 312 311 311 303 287 291 293 281 268 257 236 219 211 204 202 200 198 196 196
227 221 243 261 271 280 260 259 269 281 287 290 297 299 300 302 303 302 303 302 303 303 304 305 304 302 303 306 305 300 295 290 280 270 258 239 223 213 208 208 209 207 207 200
228 238 253 265 267 272 281 282 285 286 288 294 300 307 311 305 298 300 299 297 298 301 301 302 300 301 304 306 304 303 299 287 276 274 259 240 225 215 211 212 220 224 218 216
Height
1548 1551 1554 1551 1551 1549 1549 1551 1553 1547 1541 1545 1541 1529 1513 1508 1509 1505 1503 1503 1503 1503 1506 1510 1512 1515 1517 1519 1521 1522 1525 1527 1529 1531 1531 1532 1533 1535 1535 1536 1535 1535 1534 1533
1551 1552 1545 1544 1546 1549 1550 1552 1551 1544 1540 1542 1538 1524 1506 1499 1497 1494 1493 1492 1493 1495 1498 1502 1505 1507 1509 1510 1512 1514 1516 1518 1520 1522 1524 1526 1527 1528 1529 1529 1529 1528 1527 1527
1550 1545 1541 1543 1545 1548 1548 1550 1547 1545 1539 1540 1539 1520 1503 1493 1490 1487 1486 1485 1487 1488 1491 1494 1497 1499 1501 1502 1503 1505 1507 1509 1512 1514 1517 1518 1519 1519 1520 1520 1521 1521 1521 1520
1546 1542 1541 1542 1544 1545 1550 1542 1542 1542 1546 1547 1542 1538 1503 1495 1489 1483 1480 1480 1481 1483 1485 1488 1490 1491 1493 1494 1497 1499 1500 1502 1504 1506 1507 1507 1508 1508 1510 1513 1514 1514 1514 1513
1543 1540 1540 1542 1541 1541 1542 1540 1541 1542 1545 1549 1545 1544 1512 1499 1490 1479 1475 1475 1476 1479 1481 1482 1484 1485 1487 1489 1490 1491 1493 1494 1495 1496 1497 1498 1499 1501 1504 1506 1506 1506 1506 1506
1540 1537 1537 1538 1538 1538 1539 1542 1546 1551 1553 1553 1542 1547 1521 1499 1487 1479 1473 1472 1473 1475 1477 1478 1479 1481 1481 1483 1483 1484 1485 1485 1486 1487 1488 1488 1490 1492 1494 1496 1497 1498 1499 1498
1542 1538 1536 1536 1539 1540 1541 1548 1555 1550 1552 1547 1539 1541 1517 1485 1481 1479 1475 1472 1471 1472 1473 1474 1474 1475 1476 1476 1477 1477 1477 1477 1478 1478 1478 1479 1480 1483 1484 1487 1489 1490 1490 1490
1548 1545 1536 1536 1537 1541 1543 1546 1555 1555 1553 1547 1537 1535 1502 1479 1476 1474 1472 1471 1469 1469 1470 1470 1470 1471 1471 1471 1471 1471 1470 1470 1470 1469 1469 1470 1472 1473 1475 1477 1480 1481 1482 1483
1547 1544 1535 1535 1535 1538 1543 1547 1546 1554 1553 1555 1539 1524 1500 1476 1472 1470 1469 1469 1467 1467 1467 1466 1466 1466 1466 1465 1465 1464 1463 1463 1462 1462 1462 1462 1462 1463 1465 1468 1470 1472 1474 1475
1540 1543 1536 1536 1536 1537 1538 1544 1552 1553 1554 1550 1538 1527 1508 1483 1474 1471 1469 1467 1465 1464 1463 1462 1462 1461 1460 1459 1458 1457 1456 1455 1455 1454 1453 1453 1454 1455 1457 1459 1460 1462 1465 1466
1537 1543 1540 1538 1538 1537 1542 1544 1545 1551 1553 1552 1544 1521 1490 1482 1474 1473 1468 1465 1464 1462 1460 1458 1456 1455 1454 1452 1451 1450 1449 1448 1447 1446 1445 1444 1444 1446 1447 1448 1450 1452 1455 1456
1538 1545 1545 1538 1533 1533 1536 1537 1543 1547 1544 1551 1550 1515 1480 1475 1471 1470 1467 1463 1462 1459 1456 1453 1451 1449 1447 1445 1444 1443 1442 1440 1439 1438 1437 1435 1435 1435 1436 1437 1439 1442 1444 1446
1539 1543 1546 1538 1538 1536 1535 1535 1537 1537 1541 1547 1543 1506 1475 1471 1468 1466 1465 1461 1458 1454 1451 1448 1445 1443 1441 1439 1438 1437 1435 1433 1432 1430 1428 1426 1425 1424 1425 1426 1429 1431 1434 1436
1535 1541 1542 1539 1531 1528 1531 1530 1533 1535 1536 1533 1520 1494 1475 1469 1466 1463 1460 1457 1454 1451 1447 1444 1441 1439 1437 1435 1433 1431 1429 1427 1424 1422 1419 1416 1415 1414 1415 1417 1418 1421 1423 1425
1534 1539 1537 1531 1526 1528 1527 1524 1523 1524 1516 1513 1493 1486 1471 1464 1464 1462 1458 1454 1451 1448 1445 1442 1439 1437 1434 1431 1429 1426 1423 1420 1417 1413 1410 1407 1406 1405 1405 1406 1408 1411 1413 1416
1534 1536 1534 1529 1523 1523 1523 1516 1510 1506 1503 1498 1488 1478 1463 1464 1463 1459 1455 1452 1449 1446 1444 1441 1438 1435 1431 1428 1424 1421 1417 1414 1409 1405 1401 1399 1397 1395 1395 1396 1398 1401 1404 1407
1533 1535 1534 1529 1521 1520 1517 1500 1494 1493 1488 1486 1482 1470 1462 1463 1459 1456 1453 1450 1448 1445 1442 1439 1435 1431 1427 1423 1419 1414 1410 1406 1401 1397 1393 1390 1387 1385 1385 1386 1388 1390 1393 1397
1526 1531 1533 1532 1522 1521 1493 1482 1482 1481 1476 1474 1470 1466 1464 1462 1457 1454 1451 1449 1447 1444 1440 1435 1430 1426 1421 1417 1412 1408 1403 1398 1393 1389 1384 1380 1377 1375 1375 1376 1378 1381 1384 1387
1518 1524 1530 1533 1526 1506 1493 1479 1476 1477 1473 1466 1465 1463 1461 1458 1453 1450 1449 1447 1444 1440 1435 1430 1425 1420 1415 1410 1405 1400 1395 1390 1385 1380 1376 1372 1368 1366 1365 1365 1368 1371 1375 1378
1518 1519 1525 1529 1526 1508 1484 1472 1470 1473 1473 1462 1461 1460 1459 1455 1456 1447 1444 1441 1437 1433 1429 1424 1418 1414 1409 1404 1398 1393 1388 1382 1377 1372 1367 1363 1360 1357 1356 1356 1359 1362 1366 1370
1520 1523 1525 1522 1517 1493 1476 1471 1472 1478 1470 1461 1459 1457 1455 1453 1451 1444 1439 1435 1431 1427 1423 1418 1412 1407 1402 1397 1391 1385 1380 1374 1369 1364 1359 1355 1352 1349 1348 1348 1350 1353 1357 1361
1511 1516 1519 1515 1514 1494 1468 1470 1471 1466 1459 1457 1455 1453 1450 1446 1441 1437 1433 1429 1424 1420 1416 1411 1405 1400 1396 1391 1384 1377 1372 1367 1361 1355 1350 1346 1343 1341 1339 1340 1341 1344 1348 1352
1501 1496 1494 1493 1481 1468 1465 1464 1461 1460 1456 1453 1450 1448 1445 1440 1436 1432 1428 1424 1419 1415 1410 1404 1399 1393 1388 1384 1378 1370 1365 1359 1353 1347 1342 1338 1334 1332 1331 1331 1333 1336 1339 1343
1487 1484 1484 1479 1467 1463 1461 1459 1457 1456 1452 1448 1446 1443 1439 1435 1431 1427 1423 1419 1414 1409 1404 1398 1392 1386 1380 1376 1371 1364 1358 1352 1345 1340 1335 1330 1326 1324 1323 1323 1325 1327 1330 1334
1479 1478 1476 1469 1460 1457 1453 1453 1451 1449 1446 1443 1440 1437 1434 1430 1426 1423 1418 1414 1409 1403 1398 1392 1386 1379 1373 1368 1363 1357 1351 1344 1338 1333 1327 1323 1319 1316 1315 1315 1316 1318 1322 1326
1468 1470 1468 1456 1453 1453 1447 1448 1446 1442 1439 1436 1434 1431 1429 1426 1422 1418 1413 1409 1403 1397 1391 1385 1379 1373 1366 1360 1354 1350 1344 1337 1331 1325 1321 1316 1312 1310 1308 1308 1310 1312 1316 1321